Weather History for LGKZ - June, 2013

Change the Weather History Date:

Sunday, June 30, 2013

  Actual Average Record
Temperature  
Mean Temperature 63 °F -  
Max Temperature 71 °F - - ()
Min Temperature 55 °F - - ()
Degree Days  
Heating Degree Days 2    
Growing Degree Days 13 (Base 50)    
Moisture  
Dew Point 47 °F    
Average Humidity 58    
Maximum Humidity 88    
Minimum Humidity 33    
Precipitation  
Precipitation 0.00 in - - ()
Sea Level Pressure  
Sea Level Pressure 29.89 in    
Wind  
Wind Speed 10 mph ()    
Max Wind Speed 20 mph    
Max Gust Speed 33 mph    
Visibility 6.2 miles    
Events      
T = Trace of Precipitation, MM = Missing Value Source: Averaged Metar Reports

Daily Weather History Graph

Daily Weather History Graph

Search for Another Location

Airport or City:

Trip Planner

Search our weather history database for the weather conditions in past years. The results will help you decide how hot, cold, wet, or windy it might be!

Date:

Astronomy

Jun. 30, 2013 Rise Set
Actual Time 6:06 AM EEST 9:06 PM EEST
Civil Twilight 5:33 AM EEST 9:39 PM EEST
Nautical Twilight 4:51 AM EEST 10:21 PM EEST
Astronomical Twilight 4:02 AM EEST 11:09 PM EEST
Moon 12:55 AM EEST (6/30) 2:01 PM EEST (6/30)
Length of Visible Light 16h 06m
Length of Day
15h 00m
Waning Gibbous, 48% of the Moon is Illuminated
Jun 30
Waning Gibbous
Jul 8
New
Jul 16
First Quarter
Jul 22
Full
Jul 29
Last Quarter

Hourly Weather History & Observations

Time (EEST) Temp. Dew Point Humidity Pressure Visibility Wind Dir Wind Speed Gust Speed Precip Events Conditions
12:20 AM 62.6 °F 50.0 °F 63% 29.89 in - NW 10.4 mph - N/A   Unknown
12:50 AM 60.8 °F 48.2 °F 63% 29.89 in - NNW 8.1 mph - N/A   Unknown
1:20 AM 59.0 °F 48.2 °F 67% 29.89 in - NNW 8.1 mph - N/A   Unknown
1:50 AM 59.0 °F 50.0 °F 72% 29.89 in - NW 9.2 mph - N/A   Unknown
2:20 AM 57.2 °F 50.0 °F 77% 29.89 in - NW 6.9 mph - N/A   Unknown
2:50 AM 57.2 °F 51.8 °F 82% 29.86 in - NNW 10.4 mph - N/A   Unknown
3:20 AM 57.2 °F 51.8 °F 82% 29.86 in - NW 8.1 mph - N/A   Unknown
3:50 AM 55.4 °F 51.8 °F 88% 29.86 in - NW 11.5 mph - N/A   Unknown
4:20 AM 57.2 °F 50.0 °F 77% 29.86 in - NNW 10.4 mph - N/A   Unknown
4:50 AM 57.2 °F 50.0 °F 77% 29.83 in - NNW 12.7 mph - N/A   Unknown
5:20 AM 57.2 °F 50.0 °F 77% 29.86 in - WNW 12.7 mph - N/A   Unknown
5:50 AM 57.2 °F 50.0 °F 77% 29.86 in - NW 8.1 mph - N/A   Unknown
6:20 AM 55.4 °F 50.0 °F 82% 29.86 in - NNW 9.2 mph - N/A   Unknown
6:50 AM 57.2 °F 50.0 °F 77% 29.86 in - NW 9.2 mph - N/A   Unknown
7:20 AM 57.2 °F 50.0 °F 77% 29.86 in - NW 9.2 mph - N/A   Unknown
7:50 AM 59.0 °F 50.0 °F 72% 29.86 in - NW 12.7 mph - N/A   Unknown
8:20 AM 60.8 °F 50.0 °F 68% 29.86 in - NNW 10.4 mph - N/A   Unknown
8:50 AM 62.6 °F 50.0 °F 63% 29.86 in - WNW 12.7 mph - N/A   Unknown
9:20 AM 62.6 °F 48.2 °F 59% 29.89 in - NNW 13.8 mph - N/A   Unknown
9:50 AM 64.4 °F 48.2 °F 56% 29.89 in - NNW 15.0 mph - N/A   Unknown
10:20 AM 64.4 °F 48.2 °F 56% 29.86 in - WNW 13.8 mph - N/A   Unknown
10:50 AM 64.4 °F 46.4 °F 52% 29.89 in - NW 13.8 mph - N/A   Unknown
11:20 AM 68.0 °F 46.4 °F 46% 29.89 in - NW 18.4 mph - N/A   Unknown
11:50 AM 68.0 °F 46.4 °F 46% 29.89 in - NW 17.3 mph - N/A   Unknown
12:20 PM 68.0 °F 44.6 °F 43% 29.89 in - NW 19.6 mph 31.1 mph N/A   Unknown
12:50 PM 68.0 °F 44.6 °F 43% 29.89 in - NW 19.6 mph 31.1 mph N/A   Unknown
1:20 PM 68.0 °F 44.6 °F 43% 29.89 in - NW 16.1 mph 29.9 mph N/A   Unknown
1:50 PM 71.6 °F 42.8 °F 35% 29.89 in - NNW 16.1 mph 33.4 mph N/A   Unknown
2:20 PM 71.6 °F 41.0 °F 33% 29.89 in - NW 19.6 mph - N/A   Unknown
2:50 PM 71.6 °F 42.8 °F 35% 29.89 in 6.2 mi NNW 17.3 mph 29.9 mph N/A   Scattered Clouds
3:50 PM 71.6 °F 42.8 °F 35% 29.89 in 6.2 mi NNW 16.1 mph - N/A   Scattered Clouds
4:50 PM 69.8 °F 44.6 °F 40% 29.89 in 6.2 mi NNW 12.7 mph - N/A   Scattered Clouds
5:50 PM 69.8 °F 42.8 °F 38% 29.89 in 6.2 mi WNW 12.7 mph 25.3 mph N/A   Scattered Clouds
6:50 PM 69.8 °F 44.6 °F 40% 29.92 in 6.2 mi WNW 11.5 mph - N/A   Scattered Clouds
7:50 PM 68.0 °F 44.6 °F 43% 29.92 in 6.2 mi NNW 11.5 mph - N/A   Scattered Clouds
8:50 PM 66.2 °F 44.6 °F 46% 29.95 in 6.2 mi NW 5.8 mph - N/A   Scattered Clouds
9:20 PM 64.4 °F 44.6 °F 49% 29.95 in - NW 4.6 mph - N/A   Unknown
9:50 PM 64.4 °F 42.8 °F 45% 29.95 in - NW 6.9 mph - N/A   Unknown
10:20 PM 62.6 °F 42.8 °F 48% 29.95 in - NW 8.1 mph - N/A   Unknown
10:50 PM 60.8 °F 44.6 °F 55% 29.98 in - NNW 6.9 mph - N/A   Unknown
11:20 PM 60.8 °F 44.6 °F 55% 29.98 in - NNW 5.8 mph - N/A   Unknown
11:50 PM 59.0 °F 46.4 °F 63% 29.98 in - NNW 4.6 mph - N/A   Unknown